Terug naar catalogus

STARLINK-32826

ActiefCommunicatieVLEO
NORAD 62970·PAYLOAD·🇺🇸 United States

Gelanceerd Feb 11, 2025 vanaf Vandenberg Space Force Base

Loading…

Volgende Passages (komende 24 uur)

TLE

VersSource: CelesTrak SupGP

Epoch: Sep 15, 2026, 03:45 UTC

1 62970C 25029Y   26258.15673611 -.00025744  00000+0 -76065-3 0  2583
2 62970  53.1586  70.4079 0001005  83.3066 284.6010 15.34401460    13

Volg STARLINK-32826 in realtime met AllMySat

Download on the App Store